Location: Deurze
(52.9838°N, 6.6090°E)
Time: 19:21:07
(UTC+00:00)

NOSS 2-2 (E) - Pass Details

Date: 11 March 2026
Orbit: 382 x 1718 km, 63.3° (Epoch: 20 April)

Event Time Altitude Azimuth Distance (km) Brightness Sun altitude
Rises 18:01:29 0° 203° (SSW) 2,553 7.0 -5.5°
Reaches altitude 10° 18:03:52 10° 194° (SSW) 1,554 5.8 -5.9°
Maximum altitude 18:06:52 32° 129° (SE) 711 3.5 -6.3°
Drops below altitude 10° 18:09:36 10° 63° (ENE) 1,413 4.9 -6.7°
Enters shadow 18:10:35 - 57° (ENE) 1,810 5.5 -6.9°
